Wind_Speed
10 9 8 8 9 9 9 9 9 9 9 9 9 9 9 8 8 9 9 9 9 9 8 9 9 8 8 8 7 8 8 8 10 9 8 8 9 9 8 9 8 8 8
10 10 9 10 10 10 9 10 9 9 9 9 9 9 9 9 9 9 9 9 9 10 9 9 9 8 8 7 7 8 9 9 9 8 8 8 8 9 8 8 8 8 7
10 10 10 10 10 10 10 10 10 9 9 9 9 9 9 9 9 10 9 9 9 9 9 10 9 8 8 8 8 8 9 9 8 8 8 8 8 8 8 8 8 7 7
9 9 10 10 10 10 10 10 10 9 9 9 9 9 9 9 9 9 9 9 9 9 9 10 10 9 9 9 9 8 8 9 8 8 8 7 7 7 7 8 7 7 6
10 10 10 10 10 10 10 10 9 9 9 9 9 9 10 10 9 9 9 9 9 8 8 9 9 9 8 8 8 8 9 8 8 7 7 7 7 7 8 7 7 6 6
11 11 11 11 11 11 11 10 10 9 9 9 9 9 9 9 8 8 8 8 8 7 8 8 8 7 7 8 8 8 9 8 7 7 7 7 7 7 6 5 5 5 5
11 11 12 11 11 11 11 10 10 10 9 9 9 9 8 8 8 8 8 8 6 7 8 8 8 6 6 6 6 8 8 7 6 6 6 6 5 5 5 5 5 5 5
12 12 13 13 12 12 11 10 10 10 10 10 9 9 9 9 9 8 8 7 7 7 8 7 7 6 5 6 6 7 6 5 5 5 5 4 5 5 4 4 4 4 4
14 13 13 13 12 12 11 11 10 10 10 10 11 10 10 9 9 8 8 8 8 8 7 6 6 5 5 5 6 6 5 5 4 5 4 4 4 4 3 3 3 3 3
15 14 14 13 13 12 11 11 11 10 10 10 10 10 10 10 9 8 8 8 8 7 7 6 5 4 4 4 4 4 4 3 3 3 3 3 2 2 3 3 4 3 3
14 14 14 14 13 13 12 12 12 11 11 10 10 9 9 9 9 9 9 8 8 6 6 5 5 5 4 4 3 3 3 2 2 2 1 1 1 1 2 3 3 3 3
14 14 13 13 13 12 12 12 12 11 11 10 9 9 8 8 8 8 8 8 7 6 5 5 5 4 3 3 2 2 1 1 1 1 1 0 1 2 2 2 3 4 4
15 14 13 12 13 13 13 12 12 11 11 11 10 9 8 8 8 8 8 7 6 6 5 4 4 3 3 2 2 1 1 0 0 1 1 1 2 2 2 3 4 5 5
16 14 13 13 13 13 12 11 11 11 11 11 10 9 9 8 7 7 7 6 6 5 5 4 3 3 2 1 0 1 1 1 1 1 2 2 2 3 4 4 4 5 6
16 15 14 13 13 13 12 12 11 11 11 10 10 9 8 8 7 6 6 6 5 5 4 4 4 3 3 2 1 1 1 2 3 3 3 4 4 4 5 5 5 6 7
17 16 16 14 13 12 12 11 11 11 10 10 9 8 7 7 7 7 6 5 5 4 4 3 3 3 2 2 2 1 2 3 3 3 4 4 4 5 6 7 7 8 8
16 15 15 14 13 12 11 11 11 10 9 9 8 7 6 6 6 6 5 5 4 4 3 3 2 2 2 2 3 3 3 3 4 4 4 5 5 5 6 6 7 8 9
16 15 14 13 12 11 11 10 9 9 8 8 7 6 6 6 5 4 4 3 3 3 3 2 2 2 2 3 3 3 3 4 4 5 5 5 6 6 6 6 7 8 9
15 14 14 13 13 11 11 10 9 8 8 7 6 5 5 5 4 3 3 3 2 2 2 2 2 3 3 3 4 4 4 4 5 5 5 5 6 7 8 8 8 8 9
14 14 13 13 13 12 11 10 9 8 7 7 6 5 5 5 4 3 3 2 2 3 3 3 3 3 4 4 4 5 5 5 5 5 6 5 6 7 9 9 9 9 10
13 13 13 13 12 12 11 11 10 9 8 7 7 6 5 5 5 4 4 4 3 4 4 3 3 4 4 4 5 5 6 6 5 6 7 6 7 8 9 9 9 10 11
11 11 12 12 11 11 11 11 10 9 8 8 7 7 6 5 4 4 5 5 5 4 5 4 4 4 5 5 5 6 6 7 6 7 7 7 8 9 9 9 10 11 12
10 10 11 11 11 10 10 10 10 9 8 8 8 7 7 6 4 4 6 6 6 6 6 6 5 5 6 6 6 7 7 8 8 7 8 8 8 9 10 11 12 12 13
8 9 9 10 10 10 10 9 9 9 8 8 8 7 7 6 6 5 6 7 7 7 7 7 7 6 7 7 7 8 8 9 9 9 9 9 9 9 10 11 11 12 13
7 7 8 8 9 9 9 9 8 8 8 8 8 8 7 6 6 6 7 7 8 8 8 8 8 8 8 8 9 9 10 10 10 10 9 9 10 10 11 11 11 12 13
6 7 7 7 8 8 8 8 8 7 8 8 8 8 7 7 7 6 7 8 8 8 8 8 9 9 9 9 10 10 10 10 11 10 10 10 11 12 12 12 12 13 14
Wind_Direction
98 102 103 110 110 107 105 106 104 100 98 98 98 94 91 90 90 94 97 98 103 108 107 102 104 116 113 110 117 129 135 150 152 145 150 153 153 155 162 166 164 160 157
93 99 103 108 106 104 108 108 103 102 100 98 98 94 89 86 89 94 100 102 107 112 106 103 103 118 117 113 123 125 127 142 145 141 146 151 153 154 158 154 158 153 152
92 96 102 102 103 102 103 106 103 104 101 100 98 93 90 89 91 93 98 103 105 109 104 104 105 109 113 114 120 123 123 136 140 140 144 149 152 153 152 149 152 153 153
91 94 99 100 101 101 98 99 99 99 99 99 98 94 93 93 95 96 97 97 100 102 98 99 105 105 108 110 109 117 122 133 132 136 144 145 144 149 152 149 145 143 146
94 95 96 97 98 98 96 96 97 97 98 98 96 97 96 94 97 100 96 97 98 99 98 104 107 111 114 116 110 115 121 127 135 138 140 145 147 146 149 148 144 146 145
97 98 96 94 95 99 98 97 98 97 96 99 100 101 97 93 95 96 97 100 101 103 100 103 107 112 114 118 114 118 123 126 130 135 137 143 143 143 149 150 154 157 152
97 98 97 94 95 98 97 94 92 95 96 98 100 102 100 99 98 97 102 99 101 104 102 103 104 106 116 117 114 115 119 120 128 129 131 137 144 151 148 152 159 168 162
92 95 96 94 96 97 95 92 93 94 93 95 99 98 97 99 100 97 97 98 104 109 107 103 107 108 112 116 118 117 120 117 122 134 136 146 156 156 161 169 169 172 176
89 90 91 91 93 95 94 92 93 95 96 97 99 99 98 100 100 96 98 97 98 102 106 104 110 112 113 118 121 124 126 125 117 125 136 136 141 164 175 176 185 186 182
88 87 87 88 89 91 91 90 91 92 94 97 98 98 96 99 96 94 96 95 96 96 98 97 96 107 120 121 126 125 128 129 119 130 131 132 143 170 188 190 189 196 197
86 87 86 87 88 90 90 88 87 89 90 94 97 98 99 99 96 94 94 94 93 95 97 98 93 92 105 113 121 120 115 115 107 122 133 151 204 213 207 209 212 213 209
84 85 85 85 86 87 89 87 86 87 86 88 93 95 94 95 97 95 91 88 88 93 98 99 97 102 99 109 117 119 108 96 102 113 116 224 251 232 224 227 237 232 223
81 82 82 81 82 82 84 85 83 84 85 85 86 90 89 88 88 88 86 86 87 86 87 92 97 110 104 103 119 148 162 113 153 216 260 278 276 269 267 259 253 247 237
77 79 78 78 78 80 83 83 81 82 84 84 83 83 84 84 80 79 82 83 80 84 87 81 84 83 80 73 126 230 237 243 264 270 275 285 278 269 267 261 259 257 252
72 73 75 76 76 78 80 81 79 82 86 85 81 80 82 84 84 82 79 74 73 78 86 82 71 69 48 33 19 263 265 279 285 281 277 278 277 276 269 265 264 258 258
69 69 70 72 72 75 77 76 74 76 81 80 78 74 73 74 77 77 73 73 70 63 60 61 53 57 45 23 5 339 294 292 289 282 277 274 277 274 269 274 269 263 260
67 67 68 69 69 70 71 71 72 73 74 76 73 70 68 67 64 69 66 62 60 55 48 40 37 35 20 1 357 354 332 305 293 287 283 273 274 269 266 269 268 266 265
68 67 66 66 67 68 67 66 68 70 69 67 65 64 62 59 61 61 57 52 49 45 32 21 10 3 357 349 339 335 331 317 301 290 288 284 277 272 267 268 270 271 270
65 65 63 62 63 65 64 62 62 60 61 61 61 61 56 52 53 53 45 35 26 15 359 346 334 335 340 336 332 329 326 320 311 304 301 294 276 273 271 271 274 276 276
62 61 60 60 60 61 59 57 57 57 56 52 53 52 51 41 30 36 31 11 356 348 340 338 333 331 326 328 334 333 326 317 312 313 306 298 287 281 279 278 278 279 280
60 58 57 56 56 56 54 53 53 53 51 47 44 44 36 25 18 23 20 8 355 347 341 338 336 330 336 340 332 329 328 323 313 306 304 297 296 293 287 287 285 283 283
55 54 54 52 52 51 49 48 49 49 46 41 38 33 29 18 13 15 9 1 358 358 357 352 340 335 338 337 328 324 328 325 318 308 306 297 293 293 289 287 286 286 282
50 47 47 46 45 46 47 45 45 45 40 37 35 33 30 25 23 22 16 8 359 350 342 342 332 325 326 325 322 319 321 321 320 316 314 307 299 298 293 290 289 288 287
49 43 42 41 39 42 43 41 39 37 37 33 29 27 25 25 23 16 8 5 359 349 340 338 337 328 322 321 323 322 319 316 315 314 313 312 310 308 302 299 299 296 293
41 40 37 33 36 36 36 38 35 29 29 28 25 20 16 14 11 3 354 348 348 342 337 334 337 332 327 324 325 323 319 315 311 311 316 314 312 310 306 301 299 297 295
29 29 31 30 30 27 27 28 25 19 20 18 16 11 7 5 1 354 350 347 340 336 332 331 330 326 323 319 318 318 318 316 313 313 314 315 314 312 308 304 298 297 297
Height
5857 5857 5857 5857 5858 5858 5858 5859 5859 5860 5861 5861 5862 5863 5864 5864 5865 5865 5866 5866 5867 5868 5868 5868 5869 5870 5870 5871 5872 5873 5874 5875 5877 5877 5879 5880 5881 5882 5883 5884 5885 5886 5887
5858 5858 5858 5859 5859 5859 5860 5860 5860 5861 5862 5863 5864 5865 5865 5866 5866 5867 5867 5868 5868 5869 5870 5870 5871 5871 5872 5873 5874 5874 5875 5876 5877 5878 5879 5880 5881 5882 5883 5885 5886 5887 5888
5860 5860 5860 5860 5860 5861 5861 5862 5862 5863 5864 5865 5865 5866 5867 5867 5868 5869 5869 5870 5870 5871 5871 5872 5872 5873 5873 5874 5875 5876 5877 5878 5879 5879 5880 5882 5882 5883 5884 5885 5886 5887 5888
5861 5861 5862 5862 5862 5862 5863 5863 5864 5864 5865 5866 5867 5867 5868 5869 5869 5870 5871 5871 5871 5872 5873 5873 5874 5874 5875 5876 5877 5878 5879 5879 5880 5881 5882 5882 5883 5884 5885 5886 5887 5888 5889
5863 5863 5863 5863 5864 5864 5864 5865 5865 5866 5866 5867 5868 5869 5870 5870 5871 5872 5872 5873 5873 5874 5874 5875 5875 5876 5877 5877 5878 5879 5880 5880 5881 5882 5882 5883 5884 5884 5885 5887 5888 5889 5889
5865 5865 5865 5865 5865 5866 5866 5867 5867 5868 5868 5869 5869 5870 5871 5872 5873 5873 5874 5874 5875 5875 5876 5877 5877 5878 5878 5879 5880 5880 5880 5881 5882 5883 5883 5884 5885 5885 5886 5888 5889 5889 5890
5867 5866 5867 5867 5867 5867 5868 5868 5869 5869 5870 5870 5871 5872 5873 5873 5874 5874 5875 5875 5876 5877 5877 5878 5879 5879 5879 5880 5881 5881 5882 5882 5883 5883 5884 5885 5886 5887 5888 5888 5889 5890 5890
5869 5868 5869 5869 5869 5870 5870 5870 5871 5871 5871 5871 5872 5873 5874 5874 5875 5876 5876 5877 5877 5878 5879 5879 5880 5880 5880 5881 5882 5882 5883 5883 5883 5884 5885 5886 5887 5888 5888 5889 5889 5890 5890
5871 5871 5871 5871 5872 5872 5872 5872 5873 5873 5873 5873 5873 5874 5876 5876 5877 5877 5878 5878 5879 5879 5880 5881 5881 5881 5882 5882 5883 5884 5884 5884 5884 5885 5886 5887 5887 5888 5888 5889 5889 5890 5890
5874 5874 5874 5874 5874 5874 5874 5874 5875 5875 5875 5875 5875 5876 5877 5878 5879 5879 5879 5880 5880 5881 5882 5882 5882 5883 5883 5884 5884 5885 5885 5885 5885 5886 5886 5887 5887 5888 5888 5889 5889 5890 5890
5876 5876 5876 5877 5877 5877 5877 5877 5877 5877 5877 5877 5877 5878 5879 5880 5880 5881 5881 5881 5882 5882 5883 5883 5883 5883 5884 5884 5885 5885 5886 5886 5886 5887 5887 5887 5888 5888 5888 5889 5889 5889 5890
5879 5879 5879 5879 5879 5879 5879 5879 5879 5879 5879 5879 5879 5880 5880 5881 5882 5882 5883 5883 5883 5884 5884 5884 5884 5884 5885 5885 5885 5886 5886 5887 5887 5887 5887 5888 5888 5888 5888 5888 5888 5889 5889
5882 5882 5882 5881 5881 5881 5881 5881 5881 5881 5881 5881 5882 5882 5882 5883 5883 5884 5884 5884 5884 5885 5885 5885 5885 5885 5885 5886 5886 5886 5887 5887 5887 5887 5887 5888 5888 5888 5888 5888 5888 5888 5888
5885 5885 5884 5884 5884 5884 5884 5883 5883 5883 5884 5884 5884 5884 5884 5885 5885 5885 5885 5885 5886 5886 5886 5886 5886 5886 5886 5887 5886 5886 5887 5887 5887 5887 5887 5887 5887 5887 5888 5888 5887 5887 5887
5888 5887 5887 5887 5886 5886 5886 5886 5886 5886 5886 5886 5886 5886 5886 5886 5887 5887 5887 5887 5887 5887 5887 5887 5887 5887 5887 5887 5886 5886 5886 5886 5886 5886 5886 5886 5887 5887 5887 5887 5887 5887 5886
5891 5890 5890 5889 5889 5889 5888 5888 5888 5888 5888 5888 5888 5888 5888 5888 5888 5888 5888 5888 5888 5888 5887 5887 5887 5887 5887 5887 5887 5886 5886 5886 5886 5886 5885 5886 5886 5885 5885 5885 5885 5885 5885
5894 5894 5893 5892 5892 5891 5891 5890 5890 5890 5890 5890 5889 5889 5889 5889 5889 5889 5889 5889 5889 5888 5888 5888 5888 5887 5887 5887 5886 5885 5885 5885 5884 5884 5884 5884 5884 5884 5884 5884 5884 5883 5883
5897 5896 5896 5895 5894 5894 5893 5892 5892 5892 5891 5891 5891 5890 5890 5890 5890 5889 5889 5889 5889 5889 5889 5888 5888 5888 5887 5886 5886 5885 5884 5884 5884 5883 5883 5883 5882 5882 5882 5882 5882 5881 5881
5900 5899 5898 5897 5896 5896 5895 5894 5894 5893 5893 5892 5892 5891 5891 5891 5890 5890 5890 5889 5889 5889 5889 5888 5888 5888 5887 5886 5886 5885 5884 5883 5883 5882 5882 5881 5881 5881 5881 5881 5881 5880 5880
5903 5902 5901 5900 5899 5898 5897 5896 5895 5895 5894 5893 5892 5892 5891 5891 5891 5890 5890 5890 5889 5889 5889 5888 5888 5887 5886 5886 5885 5884 5883 5883 5882 5881 5881 5880 5880 5880 5879 5879 5879 5879 5878
5905 5904 5903 5901 5900 5900 5899 5898 5897 5896 5895 5895 5893 5892 5892 5891 5891 5890 5890 5890 5889 5888 5888 5887 5887 5886 5886 5885 5884 5884 5883 5882 5881 5881 5880 5879 5879 5878 5878 5877 5877 5877 5876
5907 5906 5904 5903 5902 5901 5900 5899 5899 5898 5897 5896 5895 5894 5892 5892 5891 5890 5890 5890 5889 5888 5887 5887 5886 5886 5885 5885 5884 5883 5882 5882 5880 5880 5879 5878 5877 5877 5876 5875 5875 5874 5874
5908 5907 5906 5905 5904 5903 5902 5901 5900 5899 5898 5897 5896 5895 5893 5892 5891 5891 5890 5890 5889 5888 5887 5886 5886 5885 5884 5884 5883 5882 5881 5880 5879 5879 5878 5877 5876 5875 5874 5873 5873 5872 5871
5909 5908 5907 5906 5905 5904 5903 5902 5901 5900 5899 5898 5897 5895 5894 5893 5892 5891 5891 5890 5889 5888 5887 5886 5885 5884 5883 5882 5881 5880 5880 5879 5878 5877 5876 5875 5874 5873 5872 5871 5870 5869 5868
5910 5909 5908 5907 5906 5905 5904 5903 5902 5901 5900 5899 5897 5896 5895 5894 5893 5892 5891 5889 5888 5887 5886 5885 5884 5883 5882 5881 5880 5879 5878 5877 5876 5875 5874 5873 5872 5871 5870 5869 5868 5866 5865
5911 5910 5909 5908 5907 5906 5905 5903 5903 5902 5900 5899 5898 5897 5895 5894 5893 5891 5890 5889 5888 5887 5885 5884 5883 5882 5881 5880 5879 5877 5876 5875 5874 5873 5872 5871 5870 5869 5868 5867 5865 5864 5862